Total_Precipitation_Accumulation
0.00 0.00 0.02 0.04 0.04 0.03 0.04 0.07 0.11 0.06 0.03 0.05 0.08 0.05 0.03 0.02 0.01 0.01 0.01 0.00 0.02 0.06 0.06 0.07 0.06 0.08 0.08 0.05 0.04 0.03 0.02 0.01 0.01 0.01 0.01 0.03 0.05 0.07 0.03 0.01 0.02 0.02 0.06
0.00 0.00 0.04 0.06 0.08 0.07 0.06 0.07 0.06 0.03 0.04 0.05 0.10 0.06 0.03 0.02 0.01 0.01 0.01 0.02 0.06 0.06 0.04 0.04 0.06 0.04 0.05 0.03 0.02 0.02 0.00 0.00 0.00 0.00 0.00 0.01 0.03 0.05 0.03 0.02 0.03 0.03 0.03
0.00 0.00 0.05 0.16 0.14 0.11 0.10 0.06 0.03 0.03 0.04 0.04 0.08 0.06 0.04 0.02 0.02 0.01 0.02 0.04 0.05 0.05 0.03 0.02 0.02 0.02 0.01 0.02 0.01 0.00 0.00 0.00 0.00 0.00 0.00 0.00 0.01 0.03 0.02 0.01 0.02 0.02 0.02
0.00 0.00 0.02 0.22 0.16 0.13 0.10 0.08 0.04 0.02 0.04 0.04 0.05 0.05 0.03 0.02 0.01 0.02 0.02 0.04 0.04 0.03 0.02 0.01 0.00 0.01 0.01 0.01 0.01 0.00 0.00 0.00 0.00 0.00 0.00 0.00 0.00 0.02 0.02 0.01 0.01 0.01 0.00
0.00 0.01 0.07 0.24 0.22 0.14 0.12 0.09 0.08 0.05 0.04 0.03 0.03 0.04 0.03 0.02 0.01 0.02 0.02 0.03 0.01 0.01 0.02 0.01 0.00 0.00 0.01 0.01 0.00 0.00 0.00 0.00 0.00 0.00 0.00 0.00 0.00 0.00 0.00 0.00 0.00 0.00 0.00
0.02 0.15 0.25 0.31 0.28 0.19 0.13 0.13 0.11 0.09 0.07 0.05 0.03 0.03 0.02 0.01 0.02 0.01 0.01 0.01 0.00 0.00 0.01 0.01 0.00 0.01 0.01 0.01 0.00 0.00 0.00 0.00 0.00 0.00 0.00 0.00 0.00 0.01 0.01 0.01 0.00 0.00 0.00
0.01 0.17 0.45 0.34 0.36 0.24 0.13 0.14 0.10 0.09 0.07 0.06 0.05 0.03 0.01 0.02 0.03 0.01 0.01 0.00 0.00 0.00 0.01 0.00 0.00 0.01 0.01 0.01 0.00 0.00 0.00 0.00 0.00 0.00 0.00 0.00 0.00 0.01 0.01 0.01 0.01 0.01 0.01
0.05 0.15 0.58 0.64 0.65 0.45 0.23 0.16 0.12 0.11 0.07 0.06 0.06 0.02 0.01 0.02 0.02 0.01 0.00 0.00 0.00 0.00 0.00 0.00 0.01 0.01 0.00 0.00 0.00 0.00 0.00 0.00 0.00 0.00 0.00 0.00 0.00 0.01 0.01 0.01 0.01 0.00 0.00
0.15 0.22 0.39 0.76 1.10 1.18 0.77 0.42 0.24 0.16 0.11 0.06 0.06 0.03 0.01 0.01 0.01 0.01 0.00 0.00 0.00 0.00 0.00 0.01 0.01 0.00 0.00 0.00 0.00 0.00 0.00 0.00 0.00 0.00 0.00 0.00 0.00 0.01 0.01 0.01 0.00 0.01 0.01
0.33 0.33 0.35 0.65 1.04 1.07 0.97 0.94 0.46 0.22 0.12 0.11 0.03 0.02 0.00 0.01 0.01 0.01 0.01 0.01 0.00 0.01 0.01 0.01 0.00 0.00 0.00 0.00 0.00 0.00 0.00 0.00 0.00 0.00 0.00 0.00 0.00 0.00 0.00 0.00 0.00 0.00 0.00
0.46 0.69 0.56 0.71 1.04 1.06 1.03 1.01 1.20 0.75 0.47 0.25 0.08 0.00 0.00 0.00 0.00 0.00 0.00 0.01 0.01 0.01 0.01 0.01 0.00 0.00 0.00 0.00 0.00 0.00 0.00 0.00 0.00 0.00 0.00 0.00 0.00 0.00 0.00 0.00 0.00 0.00 0.00
0.35 0.53 0.66 0.62 0.78 1.20 1.37 1.18 1.37 1.19 0.67 0.23 0.08 0.00 0.00 0.00 0.00 0.00 0.00 0.01 0.01 0.01 0.02 0.01 0.01 0.01 0.00 0.00 0.00 0.00 0.00 0.00 0.00 0.00 0.00 0.00 0.00 0.00 0.00 0.00 0.00 0.00 0.00
0.68 0.57 0.48 0.53 0.55 1.35 1.63 1.60 1.24 1.24 0.60 0.30 0.12 0.02 0.00 0.00 0.00 0.00 0.00 0.01 0.01 0.01 0.01 0.01 0.01 0.00 0.00 0.00 0.00 0.00 0.00 0.00 0.00 0.00 0.00 0.00 0.00 0.00 0.00 0.00 0.00 0.00 0.00
0.58 1.11 0.92 0.77 0.71 0.86 2.06 2.20 1.88 1.01 0.74 0.37 0.18 0.05 0.00 0.00 0.00 0.00 0.00 0.00 0.00 0.00 0.00 0.00 0.00 0.00 0.00 0.00 0.00 0.00 0.00 0.00 0.00 0.00 0.00 0.00 0.00 0.00 0.00 0.00 0.00 0.00 0.00
0.28 0.90 2.11 1.19 0.93 0.91 1.21 2.61 2.67 2.41 1.05 0.57 0.22 0.06 0.01 0.00 0.00 0.00 0.00 0.00 0.00 0.00 0.00 0.00 0.00 0.00 0.00 0.00 0.00 0.00 0.00 0.00 0.00 0.00 0.00 0.00 0.00 0.00 0.00 0.00 0.00 0.00 0.00
0.31 0.34 1.81 2.50 1.33 1.26 0.97 1.68 2.54 2.97 3.09 1.18 0.39 0.09 0.02 0.01 0.00 0.00 0.00 0.00 0.00 0.00 0.00 0.00 0.00 0.00 0.00 0.00 0.00 0.00 0.00 0.00 0.00 0.00 0.00 0.00 0.00 0.00 0.00 0.00 0.00 0.00 0.00
0.27 0.53 0.71 2.69 2.28 1.41 1.30 1.03 1.77 2.77 3.05 3.55 1.45 0.33 0.08 0.03 0.01 0.00 0.00 0.00 0.00 0.00 0.00 0.00 0.00 0.00 0.00 0.00 0.00 0.00 0.00 0.00 0.00 0.00 0.00 0.00 0.00 0.00 0.00 0.00 0.00 0.00 0.00
0.13 0.36 0.62 1.11 2.58 2.14 1.25 1.26 1.11 2.03 2.55 2.82 3.52 2.10 0.49 0.17 0.05 0.00 0.00 0.00 0.00 0.00 0.00 0.00 0.00 0.00 0.00 0.00 0.00 0.00 0.00 0.00 0.00 0.00 0.00 0.00 0.00 0.00 0.00 0.00 0.00 0.00 0.00
0.16 0.24 0.46 0.62 1.30 2.32 2.01 1.23 1.26 1.15 1.94 2.04 2.56 2.81 2.35 0.79 0.32 0.10 0.01 0.00 0.00 0.00 0.00 0.00 0.00 0.00 0.00 0.00 0.00 0.00 0.00 0.00 0.00 0.00 0.00 0.00 0.00 0.00 0.00 0.00 0.00 0.00 0.00
0.23 0.20 0.36 0.41 0.65 1.45 2.31 2.27 1.67 1.70 1.48 1.75 2.38 2.31 2.16 2.36 1.20 0.49 0.13 0.01 0.00 0.00 0.00 0.00 0.00 0.00 0.00 0.00 0.00 0.00 0.00 0.00 0.00 0.00 0.00 0.00 0.00 0.00 0.00 0.00 0.00 0.00 0.00
0.32 0.21 0.23 0.39 0.41 0.96 1.44 2.04 2.10 1.76 1.60 1.41 1.93 2.84 1.96 1.92 2.29 1.56 0.65 0.16 0.02 0.00 0.00 0.00 0.00 0.00 0.00 0.00 0.00 0.00 0.00 0.00 0.00 0.00 0.00 0.00 0.00 0.00 0.00 0.00 0.00 0.00 0.00
0.23 0.33 0.19 0.31 0.36 0.61 0.79 0.94 1.38 1.55 1.63 1.56 1.39 2.05 2.67 1.72 1.67 1.93 1.73 0.89 0.22 0.03 0.00 0.00 0.00 0.00 0.00 0.00 0.00 0.00 0.00 0.00 0.00 0.00 0.00 0.00 0.00 0.00 0.00 0.00 0.00 0.00 0.00
0.29 0.23 0.34 0.24 0.33 0.49 0.66 0.92 1.29 1.77 2.04 2.06 1.78 1.66 2.05 1.77 1.21 1.13 1.37 1.54 0.98 0.34 0.05 0.00 0.00 0.00 0.00 0.00 0.00 0.00 0.00 0.00 0.00 0.00 0.00 0.00 0.00 0.00 0.00 0.00 0.00 0.00 0.00
0.37 0.41 0.39 0.32 0.26 0.47 0.62 0.81 0.76 1.01 1.19 1.35 1.26 1.09 1.11 1.12 1.02 0.70 0.62 0.85 0.94 0.89 0.49 0.10 0.00 0.00 0.00 0.00 0.00 0.00 0.00 0.00 0.00 0.00 0.00 0.00 0.00 0.00 0.00 0.00 0.00 0.00 0.00
0.55 0.60 0.66 0.43 0.28 0.29 0.59 0.74 0.73 0.61 0.61 0.84 1.05 0.92 0.89 0.80 0.67 0.57 0.43 0.32 0.36 0.33 0.31 0.20 0.05 0.00 0.00 0.00 0.00 0.00 0.00 0.00 0.00 0.00 0.00 0.00 0.00 0.00 0.00 0.00 0.00 0.00 0.00
0.66 0.67 0.80 0.62 0.42 0.41 0.34 0.66 1.05 0.82 0.61 0.82 1.03 0.86 0.70 0.59 0.47 0.33 0.29 0.19 0.08 0.10 0.08 0.04 0.02 0.00 0.00 0.00 0.00 0.00 0.00 0.00 0.00 0.00 0.00 0.00 0.00 0.00 0.00 0.00 0.00 0.00 0.00